Regional Weather Roundup
Issued by NWS

Home | Current Version | Previous Version | Text Only | Print | Product List | Glossary Off
Versions: 1 2 3 4 5 6 7 8 9 10 11 12 13 14 15 16 17 18 19 20 21 22 23 24 25 26 27 28 29 30 31 32 33 34 35 36 37 38 39 40 41 42 43 44 45 46 47 48 49 50

961
ASUS43 KFSD 212010
RWRSD

WEATHER ROUNDUP FOR SOUTH DAKOTA
NATIONAL WEATHER SERVICE SIOUX FALLS SD
300 PM CDT MON AUG 21 2017

NOTE: "FAIR" INDICATES FEW OR NO CLOUDS BELOW 12,000 FEET WITH NO
SIGNIFICANT WEATHER AND/OR OBSTRUCTIONS TO VISIBILITY.


SDZ001>005-009-010-012>017-212100-
NORTHWEST AND NORTH CENTRAL SOUTH DAKOTA

CITY           SKY/WX    TMP DP  RH WIND       PRES   REMARKS
BUFFALO          N/A     78  37  22 N20       30.06S
FAITH            N/A     79  46  31 N17G26    30.06S
MOBRIDGE       SUNNY     79  64  60 NW12G18   29.95
$$

SDZ012>016-024>037-041>051-057-063-072>074-212100-
SOUTHWEST AND SOUTH CENTRAL SOUTH DAKOTA

CITY           SKY/WX    TMP DP  RH WIND       PRES   REMARKS
RAPID CTY ARPT MOSUNNY   77  46  33 N12       30.13R
PIERRE         MOSUNNY   72  63  73 NW20      29.97S
CUSTER         CLOUDY    71  34  25 NE18      30.23R
ELLSWORTH AFB  MOSUNNY   76  43  30 N16G22    30.12R
PHILIP         SUNNY     82  61  48 N15       30.01F
PINE RIDGE     SUNNY     79  60  52 N8        30.10R
SPEARFISH      FAIR      75  39  27 N12       30.18S
WINNER         CLOUDY    72  65  78 NW13      29.99R
$$

SDZ004>011-016>023-039-040-212100-
NORTHEAST SOUTH DAKOTA

CITY           SKY/WX    TMP DP  RH WIND       PRES   REMARKS
ABERDEEN       CLOUDY    73  63  70 W12       29.93F
WATERTOWN      CLOUDY    64  61  90 N17       29.89F
BROOKINGS      LGT RAIN  67  63  87 SE25G31   29.83F
SISSETON         N/A     71  62  73 W10       29.88F
$$

SDZ017-020-022-023-036>040-048>070-212100-
SOUTHEAST SOUTH DAKOTA

CITY           SKY/WX    TMP DP  RH WIND       PRES   REMARKS
SIOUX FALLS    LGT RAIN  68  67  96 SE14      29.91F
HURON          CLOUDY    70  65  84 N15       29.92R
CHAMBERLAIN    CLOUDY    76  68  76 W8        29.96S
MITCHELL       CLOUDY    74  64  71 NW12      29.91R
YANKTON        CLOUDY    68  62  81 SE9       29.90F
$$

ABBREVIATIONS USED IN REMARKS
   TC - TEMPERATURE IN CELSIUS
  WCI - WIND CHILL INDEX
   HX - HEAT INDEX
  VSB - VISIBILITY





USA.gov is the U.S. government's official web portal to all federal, state and local government web resources and services.